DW9711 Weather Reports


Display with metric or nautical units.
time (UTC)temp
F
wind
direction
speed
MPH
gust
MPH
rain 1hr
in
rain 24hr
in
rain mn
in
humidity
%
barometer
mb
20260902044020 80 249 0.0 0.0 0.00 0.00 0.00 81 1014.3
20260902043519 80 249 0.0 0.0 0.00 0.00 0.00 81 1014.2
20260902043019 80 249 0.0 0.0 0.00 0.00 0.00 81 1014.2
20260902042519 81 249 0.0 0.0 0.00 0.00 0.00 80 1014.2
20260902042019 81 249 0.0 0.0 0.00 0.00 0.00 80 1014.2
20260902041519 81 249 0.0 0.0 0.00 0.00 0.00 80 1014.3
20260902041019 81 249 0.0 0.0 0.00 0.00 0.00 80 1014.2
20260902040519 81 249 0.0 0.0 0.00 0.00 0.00 80 1014.2
20260902040021 81 249 0.0 0.0 0.00 0.00 0.00 80 1014.3
20260902035518 81 249 0.0 0.0 0.00 0.00 0.00 80 1014.2
20260902035018 81 249 0.0 0.0 0.00 0.00 0.00 82 1014.3
20260902034518 81 249 0.0 0.0 0.00 0.00 0.00 81 1014.3
20260902034017 81 249 0.0 0.0 0.00 0.00 0.00 80 1014.4
20260902033517 81 249 0.0 0.0 0.00 0.00 0.00 81 1014.3
20260902033018 81 249 0.0 0.0 0.00 0.00 0.00 80 1014.4
20260902032520 81 249 0.0 0.0 0.00 0.00 0.00 80 1014.4
20260902032023 81 249 0.0 0.0 0.00 0.00 0.00 80 1014.5
20260902031517 81 249 0.0 0.0 0.00 0.00 0.00 80 1014.6
20260902031017 81 249 0.0 0.0 0.00 0.00 0.00 80 1014.6
20260902030517 82 249 0.0 0.0 0.00 0.00 0.00 80 1014.6
20260902030019 82 249 0.0 0.0 0.00 0.00 0.00 80 1014.5
20260902025519 82 249 0.0 0.0 0.00 0.00 0.00 80 1014.5
20260902025017 82 249 0.0 0.0 0.00 0.00 0.00 80 1014.5
20260902024517 82 249 0.0 0.0 0.00 0.00 0.00 80 1014.5
20260902024016 82 249 0.0 0.0 0.00 0.00 0.00 80 1014.5
20260902023516 82 249 0.0 0.0 0.00 0.00 0.00 79 1014.5
20260902023034 83 249 0.0 0.0 0.00 0.00 0.00 79 1014.5
20260902022516 83 249 0.0 0.0 0.00 0.00 0.00 79 1014.5
20260902022019 83 249 0.0 0.0 0.00 0.00 0.00 79 1014.4
20260902021527 83 249 0.0 0.0 0.00 0.00 0.00 79 1014.4
20260902021019 83 251 0.0 0.0 0.00 0.00 0.00 79 1014.4
20260902020517 83 251 0.0 0.0 0.00 0.00 0.00 79 1014.4
20260902020016 83 251 0.0 0.0 0.00 0.00 0.00 78 1014.4
20260902015516 84 251 0.0 0.0 0.00 0.00 0.00 78 1014.4
20260902015015 84 251 0.0 0.0 0.00 0.00 0.00 77 1014.4
20260902014515 84 251 0.0 0.0 0.00 0.00 0.00 76 1014.3
20260902014014 85 251 0.0 0.0 0.00 0.00 0.00 75 1014.3
20260902013514 85 251 0.0 0.0 0.00 0.00 0.00 75 1014.2
20260902013017 85 251 0.0 0.0 0.00 0.00 0.00 75 1014.2
20260902012514 85 251 0.0 0.0 0.00 0.00 0.00 74 1014.2
20260902012017 86 251 0.0 0.0 0.00 0.00 0.00 74 1014.1
20260902011514 86 251 0.0 0.0 0.00 0.00 0.00 73 1014.0
20260902011014 86 251 0.0 0.0 0.00 0.00 0.00 72 1014.0
20260902010513 87 251 0.0 0.0 0.00 0.00 0.00 72 1013.9
20260902010014 87 251 0.0 0.0 0.00 0.00 0.00 71 1013.9
20260902005514 87 251 0.0 0.0 0.00 0.00 0.00 71 1013.8
20260902005013 87 251 0.0 0.0 0.00 0.00 0.00 70 1013.9
20260902004515 88 251 0.0 0.0 0.00 0.00 0.00 70 1013.8
20260902004012 88 251 0.0 0.0 0.00 0.00 0.00 70 1013.8
20260902003512 88 251 0.0 0.0 0.00 0.00 0.00 69 1013.7
20260902003015 89 251 0.0 0.0 0.00 0.00 0.00 68 1013.9
20260902002512 89 251 0.0 0.0 0.00 0.00 0.00 68 1013.9
20260902002017 90 251 0.0 0.0 0.00 0.00 0.00 68 1013.8
20260902001512 90 251 0.0 0.0 0.00 0.00 0.00 67 1013.9
20260902001011 90 251 0.0 0.0 0.00 0.00 0.00 66 1013.8
20260902000511 91 251 0.0 0.0 0.00 0.00 0.00 64 1013.7
20260902000014 91 251 0.0 1.0 0.00 0.00 0.00 64 1013.9
20260901235510 91 252 0.0 1.0 0.00 0.00 0.00 63 1013.9
20260901235010 92 252 0.0 0.0 0.00 0.00 0.00 65 1013.9
20260901234510 92 252 0.0 0.0 0.00 0.00 0.00 63 1014.0
20260901234010 93 252 0.0 0.0 0.00 0.00 0.00 66 1014.0
20260901233510 93 252 0.0 0.0 0.00 0.00 0.00 67 1014.1
20260901233010 93 252 0.0 0.0 0.00 0.00 0.00 64 1014.0
20260901232509 93 252 0.0 0.0 0.00 0.00 0.00 65 1014.0
20260901232009 94 252 0.0 0.0 0.00 0.00 0.00 63 1014.1
20260901231510 94 252 0.0 1.0 0.00 0.00 0.00 58 1014.1
20260901231009 94 252 0.0 0.0 0.00 0.00 0.00 58 1014.1
20260901230508 95 252 0.0 0.0 0.00 0.00 0.00 58 1014.1
20260901230009 95 252 0.0 0.0 0.00 0.00 0.00 57 1014.1
20260901225508 95 252 0.0 2.0 0.00 0.00 0.00 53 1014.1
20260901225009 95 252 0.0 2.0 0.00 0.00 0.00 56 1014.1
20260901224508 95 252 0.0 2.0 0.00 0.00 0.00 55 1014.1
20260901224008 94 252 0.0 2.0 0.00 0.00 0.00 54 1014.1
20260901223507 94 252 0.0 2.0 0.00 0.00 0.00 54 1014.1
20260901223015 94 252 0.0 1.0 0.00 0.00 0.00 56 1014.0
20260901222508 94 252 0.0 0.0 0.00 0.00 0.00 56 1014.0
20260901222009 94 252 0.0 0.0 0.00 0.00 0.00 57 1014.0
20260901221507 94 252 0.0 1.0 0.00 0.00 0.00 61 1014.1
20260901221007 94 252 0.0 1.0 0.00 0.00 0.00 62 1014.1
20260901220506 94 252 0.0 0.0 0.00 0.00 0.00 60 1014.0
20260901220006 94 252 0.0 0.0 0.00 0.00 0.00 57 1013.9
20260901215506 94 252 0.0 0.0 0.00 0.00 0.00 56 1013.9
20260901215004 94 252 0.0 0.0 0.00 0.00 0.00 56 1013.9
20260901214505 95 252 0.0 2.0 0.00 0.00 0.00 55 1013.9
20260901214008 95 252 0.0 2.0 0.00 0.00 0.00 58 1014.0
20260901213504 95 252 0.0 1.0 0.00 0.00 0.00 55 1014.0
20260901213006 95 252 0.0 0.0 0.00 0.00 0.00 59 1014.0
20260901212503 95 252 0.0 0.0 0.00 0.00 0.00 54 1014.1
20260901212006 95 252 0.0 0.0 0.00 0.00 0.00 52 1014.1
20260901211503 96 252 0.0 3.0 0.00 0.00 0.00 53 1014.1
20260901211003 96 252 0.0 3.0 0.00 0.00 0.00 49 1014.1
20260901210503 96 252 0.0 4.0 0.00 0.00 0.00 51 1014.1
20260901210002 97 252 1.0 4.0 0.00 0.00 0.00 49 1014.2
20260901205502 97 251 1.0 3.0 0.00 0.00 0.00 50 1014.3
20260901205100 97 251 1.0 3.0 0.00 0.00 0.00 50 1014.3
20260901204610 96 255 0.0 0.0 0.00 0.00 0.00 53 1014.3
20260901204059 96 264 0.0 0.0 0.00 0.00 0.00 52 1014.4
20260901203603 96 264 0.0 0.0 0.00 0.00 0.00 51 1014.5
20260901203110 96 266 0.0 2.0 0.00 0.00 0.00 50 1014.4
20260901202558 97 267 0.0 0.0 0.00 0.00 0.00 50 1014.5
20260901202058 97 271 0.0 0.0 0.00 0.00 0.00 49 1014.5
20260901201559 96 273 0.0 0.0 0.00 0.00 0.00 51 1014.5
20260901201057 96 273 0.0 0.0 0.00 0.00 0.00 51 1014.5
20260901200557 97 273 0.0 0.0 0.00 0.00 0.00 52 1014.6
20260901200058 97 273 0.0 0.0 0.00 0.00 0.00 50 1014.6
20260901195558 97 279 0.0 0.0 0.00 0.00 0.00 51 1014.7
20260901195056 97 287 0.0 0.0 0.00 0.00 0.00 53 1014.7
20260901194555 96 288 0.0 0.0 0.00 0.00 0.00 52 1014.7
20260901194053 96 355 0.0 0.0 0.00 0.00 0.00 54 1014.7
20260901193551 96 348 0.0 0.0 0.00 0.00 0.00 54 1014.7
20260901193101 95 348 0.0 0.0 0.00 0.00 0.00 52 1014.8
20260901192550 95 348 0.0 0.0 0.00 0.00 0.00 54 1014.9
20260901192054 95 348 0.0 5.0 0.00 0.00 0.00 56 1015.0
20260901191549 95 334 2.0 5.0 0.00 0.00 0.00 54 1015.0
20260901191052 95 267 1.0 4.0 0.00 0.00 0.00 56 1015.1
20260901190549 96 264 1.0 3.0 0.00 0.00 0.00 56 1015.2
20260901190051 95 248 0.0 0.0 0.00 0.00 0.00 55 1015.2
20260901185545 95 248 0.0 0.0 0.00 0.00 0.00 57 1015.3
20260901185045 95 246 0.0 0.0 0.00 0.00 0.00 53 1015.3
20260901184548 95 246 0.0 0.0 0.00 0.00 0.00 55 1015.4
20260901184046 94 304 0.0 1.0 0.00 0.00 0.00 53 1015.4
20260901183545 94 310 0.0 1.0 0.00 0.00 0.00 54 1015.5
20260901183049 94 318 0.0 0.0 0.00 0.00 0.00 55 1015.5
20260901182546 94 333 0.0 0.0 0.00 0.00 0.00 56 1015.5
20260901182044 94 333 0.0 0.0 0.00 0.00 0.00 54 1015.5
20260901181544 94 217 0.0 0.0 0.00 0.00 0.00 56 1015.7
20260901181044 94 332 0.0 0.0 0.00 0.00 0.00 55 1015.7
20260901180540 93 333 0.0 0.0 0.00 0.00 0.00 56 1015.7
20260901180040 93 332 0.0 0.0 0.00 0.00 0.00 56 1015.8
20260901175538 93 333 0.0 1.0 0.00 0.00 0.00 58 1015.9
20260901175038 93 333 0.0 1.0 0.00 0.00 0.00 57 1016.0
20260901174538 92 332 0.0 1.0 0.00 0.00 0.00 59 1016.0
20260901174038 92 332 0.0 4.0 0.00 0.00 0.00 60 1016.1
20260901173542 93 333 0.0 5.0 0.00 0.00 0.00 61 1016.2
20260901173050 93 322 2.0 5.0 0.00 0.00 0.00 60 1016.1
20260901172535 93 18 0.0 5.0 0.00 0.00 0.00 59 1016.2
20260901172033 92 308 0.0 5.0 0.00 0.00 0.00 62 1016.2
20260901171536 92 336 0.0 5.0 0.00 0.00 0.00 62 1016.3
20260901171032 92 311 2.0 5.0 0.00 0.00 0.00 59 1016.3
20260901170531 92 319 0.0 0.0 0.00 0.00 0.00 61 1016.4
20260901170031 92 321 0.0 1.0 0.00 0.00 0.00 59 1016.4
20260901165529 92 336 0.0 1.0 0.00 0.00 0.00 62 1016.5
20260901165029 92 322 0.0 3.0 0.00 0.00 0.00 62 1016.6
20260901164526 92 300 0.0 5.0 0.00 0.00 0.00 64 1016.6
20260901164025 92 342 1.0 5.0 0.00 0.00 0.00 63 1016.7
20260901163524 91 315 1.0 4.0 0.00 0.00 0.00 63 1016.7
20260901163023 91 338 1.0 5.0 0.00 0.00 0.00 63 1016.8
20260901162523 91 328 0.0 5.0 0.00 0.00 0.00 65 1016.8
20260901162023 91 293 1.0 6.0 0.00 0.00 0.00 62 1016.8
20260901161520 91 203 1.0 6.0 0.00 0.00 0.00 62 1016.9
20260901161019 91 169 0.0 8.0 0.00 0.00 0.00 65 1016.9
20260901160517 90 321 1.0 8.0 0.00 0.00 0.00 63 1016.8
20260901160020 91 271 1.0 6.0 0.00 0.00 0.00 63 1016.8
20260901155515 90 210 1.0 4.0 0.00 0.00 0.00 65 1016.9
20260901155014 90 209 1.0 6.0 0.00 0.00 0.00 64 1016.9
20260901154512 90 189 2.0 6.0 0.00 0.00 0.00 66 1017.0
20260901154012 89 237 0.0 5.0 0.00 0.00 0.00 67 1016.9
20260901153510 89 236 1.0 4.0 0.00 0.00 0.00 67 1017.0
20260901153009 89 236 1.0 4.0 0.00 0.00 0.00 66 1016.9
20260901152508 88 236 1.0 4.0 0.00 0.00 0.00 67 1016.9
20260901152005 88 209 1.0 6.0 0.00 0.00 0.00 68 1016.9
20260901151504 88 223 1.0 6.0 0.00 0.00 0.00 69 1016.9
20260901151003 88 215 0.0 4.0 0.00 0.00 0.00 69 1016.8
20260901150501 88 215 1.0 4.0 0.00 0.00 0.00 69 1016.9
20260901145600 87 235 1.0 6.0 0.00 0.00 0.00 70 1016.9
20260901145058 87 228 1.0 5.0 0.00 0.00 0.00 72 1016.9
20260901144556 86 228 1.0 6.0 0.00 0.00 0.00 70 1017.0
20260901144055 86 228 2.0 6.0 0.00 0.00 0.00 72 1017.0
20260901143554 86 258 0.0 4.0 0.00 0.00 0.00 73 1017.0
20260901143053 85 210 1.0 5.0 0.00 0.00 0.00 73 1017.0
20260901142551 85 205 2.0 5.0 0.00 0.00 0.00 73 1017.0
20260901142050 85 179 0.0 6.0 0.00 0.00 0.00 74 1017.0
20260901141549 84 179 1.0 7.0 0.00 0.00 0.00 74 1017.0
20260901141049 84 200 2.0 7.0 0.00 0.00 0.00 75 1017.0
20260901140546 84 216 1.0 5.0 0.00 0.00 0.00 75 1017.0
20260901140056 83 180 1.0 4.0 0.00 0.00 0.00 76 1017.0
20260901135544 83 181 1.0 6.0 0.00 0.00 0.00 76 1017.0
20260901135042 83 182 1.0 6.0 0.00 0.00 0.00 77 1017.0
20260901134555 83 200 1.0 5.0 0.00 0.00 0.00 77 1016.9
20260901134039 82 215 1.0 5.0 0.00 0.00 0.00 77 1017.0
20260901133538 82 204 1.0 5.0 0.00 0.00 0.00 78 1017.0
20260901133043 82 180 1.0 5.0 0.00 0.00 0.00 78 1017.0
20260901132536 81 180 1.0 5.0 0.00 0.00 0.00 79 1017.1
20260901132038 81 180 0.0 3.0 0.00 0.00 0.00 79 1017.1
20260901131538 81 225 0.0 3.0 0.00 0.00 0.00 80 1017.1
20260901131037 80 165 0.0 0.0 0.00 0.00 0.00 80 1017.1
20260901130533 80 165 0.0 0.0 0.00 0.00 0.00 81 1017.0
20260901130038 79 165 0.0 0.0 0.00 0.00 0.00 82 1017.0
20260901125529 79 165 0.0 1.0 0.00 0.00 0.00 82 1017.0
20260901125028 79 165 0.0 0.0 0.00 0.00 0.00 82 1017.0
20260901124527 78 165 0.0 0.0 0.00 0.00 0.00 83 1017.0
20260901124025 78 165 0.0 0.0 0.00 0.00 0.00 83 1016.9
20260901123527 78 165 0.0 2.0 0.00 0.00 0.00 84 1016.8
20260901123025 77 165 0.0 2.0 0.00 0.00 0.00 84 1016.8
20260901122524 77 164 0.0 2.0 0.00 0.00 0.00 85 1016.8
20260901122024 77 163 0.0 0.0 0.00 0.00 0.00 85 1016.8
20260901121522 77 163 0.0 0.0 0.00 0.00 0.00 85 1016.6
20260901121021 77 163 0.0 1.0 0.00 0.00 0.00 85 1016.6
20260901120521 77 163 0.0 1.0 0.00 0.00 0.00 85 1016.6
20260901120032 76 163 0.0 0.0 0.00 0.00 0.00 85 1016.6
20260901115519 76 164 0.0 0.0 0.00 0.00 0.00 85 1016.5
20260901115021 76 164 0.0 0.0 0.00 0.00 0.00 85 1016.4
20260901114519 76 164 0.0 0.0 0.00 0.00 0.00 86 1016.4
20260901114016 76 164 0.0 0.0 0.00 0.00 0.00 85 1016.3
20260901113516 76 164 0.0 0.0 0.00 0.00 0.00 86 1016.3
20260901113015 76 164 0.0 0.0 0.00 0.00 0.00 85 1016.2
20260901112514 76 164 0.0 0.0 0.00 0.00 0.00 86 1016.2
20260901112015 76 164 0.0 0.0 0.00 0.00 0.00 86 1016.1
20260901111513 76 164 0.0 0.0 0.00 0.00 0.00 86 1016.0
20260901111013 76 164 0.0 0.0 0.00 0.00 0.00 86 1016.0
20260901110516 76 164 0.0 0.0 0.00 0.00 0.00 86 1016.0
20260901110012 76 164 0.0 0.0 0.00 0.00 0.00 85 1015.9
20260901105511 76 164 0.0 0.0 0.00 0.00 0.00 85 1015.9
20260901105012 76 164 0.0 0.0 0.00 0.00 0.00 86 1015.7
20260901104511 76 164 0.0 0.0 0.00 0.00 0.00 86 1015.7
20260901104012 76 164 0.0 0.0 0.00 0.00 0.00 85 1015.7
20260901103511 77 164 0.0 0.0 0.00 0.00 0.00 85 1015.7
20260901103007 77 164 0.0 0.0 0.00 0.00 0.00 85 1015.6
20260901102510 77 164 0.0 0.0 0.00 0.00 0.00 85 1015.5
20260901102007 77 164 0.0 0.0 0.00 0.00 0.00 84 1015.5
20260901101507 77 164 0.0 0.0 0.00 0.00 0.00 84 1015.5
20260901101007 77 164 0.0 0.0 0.00 0.00 0.00 84 1015.5
20260901100507 77 164 0.0 0.0 0.00 0.00 0.00 85 1015.5
20260901100006 77 164 0.0 0.0 0.00 0.00 0.00 85 1015.5
20260901095506 77 164 0.0 0.0 0.00 0.00 0.00 85 1015.5
20260901095005 77 164 0.0 0.0 0.00 0.00 0.00 85 1015.5
20260901094506 77 164 0.0 0.0 0.00 0.00 0.00 85 1015.5
20260901094006 77 164 0.0 0.0 0.00 0.00 0.00 85 1015.5
20260901093507 77 164 0.0 0.0 0.00 0.00 0.00 85 1015.5
20260901093005 77 164 0.0 0.0 0.00 0.00 0.00 85 1015.5
20260901092504 77 164 0.0 0.0 0.00 0.00 0.00 85 1015.4
20260901092004 77 164 0.0 0.0 0.00 0.00 0.00 85 1015.4
20260901091504 77 164 0.0 0.0 0.00 0.00 0.00 85 1015.4
20260901091004 77 164 0.0 0.0 0.00 0.00 0.00 85 1015.4
20260901090502 77 164 0.0 0.0 0.00 0.00 0.00 85 1015.2
20260901090005 77 164 0.0 0.0 0.00 0.00 0.00 85 1015.2
20260901085503 77 164 0.0 0.0 0.00 0.00 0.00 85 1015.1
20260901085002 77 164 0.0 0.0 0.00 0.00 0.00 85 1015.2
20260901084502 77 164 0.0 0.0 0.00 0.00 0.00 85 1015.1
20260901084002 77 164 0.0 0.0 0.00 0.00 0.00 85 1015.1
20260901083601 77 164 0.0 0.0 0.00 0.00 0.00 85 1015.1
20260901083101 77 164 0.0 0.0 0.00 0.00 0.00 85 1015.1
20260901082600 77 164 0.0 0.0 0.00 0.00 0.00 85 1015.1
20260901082104 77 164 0.0 0.0 0.00 0.00 0.00 85 1015.1
20260901081601 77 164 0.0 0.0 0.00 0.00 0.00 85 1015.1
20260901081059 77 164 0.0 2.0 0.00 0.00 0.00 85 1015.1
20260901080559 77 164 0.0 2.0 0.00 0.00 0.00 85 1015.1
20260901080104 77 163 0.0 0.0 0.00 0.00 0.00 86 1015.1
20260901075559 77 163 0.0 0.0 0.00 0.00 0.00 86 1015.1
20260901075057 77 163 0.0 0.0 0.00 0.00 0.00 85 1015.1
20260901074559 77 164 0.0 0.0 0.00 0.00 0.00 85 1015.1
20260901074100 77 163 0.0 0.0 0.00 0.00 0.00 85 1015.0
20260901073556 77 163 0.0 0.0 0.00 0.00 0.00 85 1014.9
20260901073057 77 163 0.0 0.0 0.00 0.00 0.00 85 1015.0
20260901072556 77 163 0.0 0.0 0.00 0.00 0.00 84 1014.9
20260901072058 77 163 0.0 0.0 0.00 0.00 0.00 84 1014.9
20260901071555 77 163 0.0 0.0 0.00 0.00 0.00 85 1015.0
20260901071054 77 163 0.0 0.0 0.00 0.00 0.00 85 1014.9
20260901070554 77 163 0.0 0.0 0.00 0.00 0.00 84 1015.0
20260901070053 78 163 0.0 0.0 0.00 0.00 0.00 84 1015.0
20260901065553 78 163 0.0 0.0 0.00 0.00 0.00 83 1015.0
20260901065053 78 163 0.0 0.0 0.00 0.00 0.00 83 1014.9
20260901064552 78 163 0.0 0.0 0.00 0.00 0.00 83 1015.0
20260901064053 78 163 0.0 0.0 0.00 0.00 0.00 83 1015.0
20260901063552 78 163 0.0 0.0 0.00 0.00 0.00 83 1015.0
20260901063051 78 163 0.0 0.0 0.00 0.00 0.00 83 1015.0
20260901062551 78 163 0.0 0.0 0.00 0.00 0.00 83 1015.0
20260901062050 78 163 0.0 0.0 0.00 0.00 0.00 83 1015.0
20260901061550 78 163 0.0 0.0 0.00 0.00 0.00 84 1015.0
20260901061050 78 163 0.0 0.0 0.00 0.00 0.00 84 1015.0
20260901060551 78 163 0.0 0.0 0.00 0.00 0.00 84 1015.0
20260901060049 78 163 0.0 0.0 0.00 0.00 0.00 83 1015.0
20260901055549 78 163 0.0 0.0 0.00 0.00 0.00 83 1015.1
20260901055048 78 163 0.0 0.0 0.00 0.00 0.00 83 1015.1
20260901054547 78 163 0.0 0.0 0.00 0.00 0.00 83 1015.1
20260901054047 79 163 0.0 0.0 0.00 0.00 0.00 83 1015.1
20260901053550 79 163 0.0 0.0 0.00 0.00 0.00 83 1015.1
20260901053114 79 163 0.0 0.0 0.00 0.00 0.00 83 1015.1
20260901052546 79 163 0.0 0.0 0.00 0.00 0.00 83 1015.1
20260901052045 79 163 0.0 0.0 0.00 0.00 0.00 83 1015.1
20260901051602 78 163 0.0 0.0 0.00 0.00 0.00 83 1015.2
20260901051045 79 163 0.0 0.0 0.00 0.00 0.00 83 1015.2
20260901050545 79 163 0.0 0.0 0.00 0.00 0.00 83 1015.2
20260901050044 79 163 0.0 0.0 0.00 0.00 0.00 82 1015.1
20260901045545 79 163 0.0 0.0 0.00 0.00 0.00 82 1015.1
20260901045043 79 163 0.0 0.0 0.00 0.00 0.00 82 1015.2
20260901044554 79 163 0.0 0.0 0.00 0.00 0.00 82 1015.2
20260901044043 79 163 0.0 0.0 0.00 0.00 0.00 82 1015.2